This demonstration page uses our WeatherBlox Daily Observations layout. Learn more.

Left ArrowRight Arrow

Hourly Observations for May 28, 2015

Temp ( °F °C ) Dew Point ( °F °C ) Humidity (%) Winds ( mph kmh ) Pressure ( in mb ) Visibility ( mi km ) Precip ( " mm )
12:52 am 00:52 Cloudy 65 18.3 54 12.2 68 68 SE 6 9 30.05 1018 10 16 0.00 0.00
1:52 am 01:52 Cloudy 64 17.8 54 12.2 70 70 SSE 3 6 30.05 1018 10 16 0.00 0.00
2:52 am 02:52 Cloudy 62 16.7 53 11.7 73 73 ESE 3 6 30.04 1017 10 16 0.00 0.00
3:52 am 03:52 Cloudy 64 17.8 54 12.2 70 70 SE 3 6 30.02 1017 10 16 0.00 0.00
4:52 am 04:52 Cloudy 63 17.2 54 12.2 73 73 SSE 5 7 30.02 1017 10 16 0.00 0.00
5:52 am 05:52 Cloudy 63 17.2 54 12.2 73 73 ESE 3 6 30.03 1017 10 16 0.00 0.00
6:52 am 06:52 Cloudy 62 16.7 55 12.8 78 78 SE 6 9 30.05 1018 10 16 0.00 0.00
7:52 am 07:52 Cloudy 66 18.9 56 13.3 70 70 S 9 15 30.06 1018 10 16 0.00 0.00
8:52 am 08:52 Cloudy 68 20 57 13.9 68 68 SSE 10 17 30.04 1017 10 16 0.00 0.00
9:52 am 09:52 Cloudy 68 20 58 14.4 70 70 S 13 20 30.02 1017 10 16 0.00 0.00
10:52 am 10:52 Cloudy 69 20.6 60 15.6 73 73 SSE 9 15 30.00 1016 10 16 0.00 0.00
11:52 am 11:52 Mostly Cloudy 70 21.1 60 15.6 71 71 SSE 13 20 30.01 1016 10 16 0.00 0.00
12:52 pm 12:52 Cloudy 71 21.7 61 16.1 71 71 S 13 20 30.01 1016 10 16 0.00 0.03
1:52 pm 13:52 Cloudy with Light Rain 70 21.1 64 17.8 82 82 S 9 15 30.01 1016 10 16 0.00 0.03
2:52 pm 14:52 Cloudy with Light Rain 71 21.7 65 18.3 81 81 SSE 17 28 30.00 1016 10 16 0.02 0.51
3:50 pm 15:50 Cloudy with Light Rain 70 21 64 18 83 83 S 15 24 29.97 1015 10 16 0.00 0.00
3:52 pm 15:52 Cloudy with Light Rain 70 21.1 64 17.8 82 82 S 16 26 29.98 1015 10 16 0.09 2.29
4:19 pm 16:19 Cloudy with Light Rain 70 21 64 18 83 83 S 14 22 29.97 1015 10 16 0.00 0.00
4:52 pm 16:52 Mostly Cloudy 71 21.7 65 18.3 81 81 SSE 16 26 29.95 1014 10 16 0.00 0.03
5:52 pm 17:52 Cloudy 72 22.2 64 17.8 76 76 SSE 10 17 29.91 1013 10 16 0.00 0.00
6:52 pm 18:52 Cloudy 72 22.2 63 17.2 73 73 SSE 17 28 29.90 1013 10 16 0.00 0.00
7:08 pm 19:08 Cloudy 72 22 64 18 78 78 SSE 15 24 29.88 1012 10 16 0.00 0.00
7:52 pm 19:52 Mostly Cloudy 71 21.7 63 17.2 76 76 SSE 14 22 29.89 1012 10 16 0.00 0.00
8:52 pm 20:52 Mostly Cloudy 69 20.6 63 17.2 81 81 SSE 9 15 29.91 1013 10 16 0.00 0.00
9:52 pm 21:52 Cloudy 69 20.6 64 17.8 84 84 SSE 9 15 29.92 1013 10 16 0.00 0.00
10:52 pm 22:52 Cloudy 68 20 64 17.8 87 87 SSE 9 15 29.92 1013 10 16 0.00 0.00
11:52 pm 23:52 Cloudy 68 20 64 17.8 87 87 SSE 13 20 29.90 1012 10 16 0.00 0.00

Powered by AerisWeather